Dunkirk, NY

1:11 PM EST on November 20, 2017 (GMT -0500)
Chautauqua County-Dunkirk

Weather History for KDKK - May, 2013

Change the Weather History Date:

Sunday, May 12, 2013

  Actual Average Record
Temperature  
Mean Temperature 44 °F -  
Max Temperature 48 °F 66 °F 83 °F (1937)
Min Temperature 37 °F 47 °F 32 °F (1934)
Degree Days  
Heating Degree Days 21    
Moisture  
Dew Point 35 °F    
Average Humidity 76    
Maximum Humidity 93    
Minimum Humidity 56    
Precipitation  
Precipitation 0.05 in - - ()
Sea Level Pressure  
Sea Level Pressure 29.88 in    
Wind  
Wind Speed 15 mph (WSW)    
Max Wind Speed 26 mph    
Max Gust Speed 44 mph    
Visibility 10 miles    
Events Rain    
Averages and records for this station are not official NWS values.
T = Trace of Precipitation, MM = Missing Value Source: NWS Daily Summary

Daily Weather History Graph

Daily Weather History Graph

Search for Another Location

Airport or City:

Trip Planner

Search our weather history database for the weather conditions in past years. The results will help you decide how hot, cold, wet, or windy it might be!

Date:

Astronomy

May. 12, 2013 Rise Set
Actual Time 5:58 AM EDT 8:29 PM EDT
Civil Twilight 5:26 AM EDT 9:01 PM EDT
Nautical Twilight 4:46 AM EDT 9:41 PM EDT
Astronomical Twilight 4:01 AM EDT 10:26 PM EDT
Moon 7:51 AM EDT (5/12) 10:55 PM EDT (5/12)
Length of Visible Light 15h 35m
Length of Day
14h 31m
Waxing Crescent, 6% of the Moon is Illuminated
May 12
Waxing Crescent
May 18
First Quarter
May 25
Full
May 31
Last Quarter
Jun 8
New

Hourly Weather History & Observations

Time (EDT) Temp. Windchill Dew Point Humidity Pressure Visibility Wind Dir Wind Speed Gust Speed Precip Events Conditions
12:42 AM 51.8 °F - 44.6 °F 76% 29.73 in 10.0 mi SW 11.5 mph - 0.00 in   Overcast
12:53 AM 46.9 °F - 42.1 °F 83% 29.78 in 10.0 mi West 20.7 mph 38.0 mph 0.00 in   Overcast
1:00 AM 44.6 °F 36.9 °F 39.2 °F 81% 29.78 in 8.0 mi West 18.4 mph 33.4 mph 0.00 in Rain Light Rain
1:32 AM 42.8 °F 35.4 °F 39.2 °F 87% 29.80 in 10.0 mi West 15.0 mph 21.9 mph 0.00 in   Overcast
1:53 AM 43.0 °F 37.7 °F 39.9 °F 89% 29.81 in 10.0 mi West 9.2 mph 23.0 mph 0.00 in   Overcast
2:12 AM 42.8 °F 35.8 °F 39.2 °F 87% 29.81 in 10.0 mi West 13.8 mph 24.2 mph N/A   Overcast
2:20 AM 42.8 °F 36.2 °F 39.2 °F 87% 29.81 in 10.0 mi West 12.7 mph 24.2 mph N/A   Overcast
2:31 AM 42.8 °F 35.8 °F 37.4 °F 81% 29.81 in 10.0 mi West 13.8 mph 24.2 mph N/A   Overcast
2:53 AM 42.1 °F 34.5 °F 35.1 °F 76% 29.84 in 10.0 mi West 15.0 mph 23.0 mph N/A   Overcast
3:04 AM 41.0 °F 33.1 °F 35.6 °F 81% 29.83 in 10.0 mi West 15.0 mph 21.9 mph N/A   Mostly Cloudy
3:50 AM 39.2 °F 31.2 °F 33.8 °F 81% 29.83 in 10.0 mi West 13.8 mph 20.7 mph N/A   Mostly Cloudy
3:53 AM 39.9 °F 33.9 °F 33.1 °F 77% 29.85 in 10.0 mi WSW 9.2 mph 20.7 mph N/A   Mostly Cloudy
4:01 AM 39.2 °F 32.0 °F 33.8 °F 81% 29.84 in 10.0 mi West 11.5 mph - N/A   Scattered Clouds
4:53 AM 39.0 °F 31.4 °F 32.0 °F 76% 29.84 in 10.0 mi WSW 12.7 mph - N/A   Scattered Clouds
5:53 AM 39.9 °F 33.4 °F 32.0 °F 73% 29.84 in 10.0 mi WSW 10.4 mph 19.6 mph N/A   Scattered Clouds
6:53 AM 39.0 °F 34.0 °F 33.1 °F 79% 29.83 in 10.0 mi SSW 6.9 mph - N/A   Mostly Cloudy
7:53 AM 43.0 °F 35.7 °F 33.1 °F 68% 29.83 in 10.0 mi SSW 15.0 mph 20.7 mph N/A   Clear
8:53 AM 45.0 °F 38.2 °F 32.0 °F 60% 29.83 in 10.0 mi SW 15.0 mph 25.3 mph N/A   Scattered Clouds
9:53 AM 44.1 °F 35.9 °F 32.0 °F 63% 29.85 in 10.0 mi WSW 19.6 mph 35.7 mph 0.01 in   Mostly Cloudy
10:53 AM 45.0 °F 36.6 °F 32.0 °F 60% 29.85 in 10.0 mi West 21.9 mph 34.5 mph N/A   Scattered Clouds
11:53 AM 45.0 °F 36.6 °F 33.1 °F 63% 29.86 in 10.0 mi WSW 21.9 mph 34.5 mph N/A   Mostly Cloudy
12:53 PM 44.1 °F 35.0 °F 30.9 °F 60% 29.86 in 10.0 mi WSW 24.2 mph 39.1 mph N/A   Mostly Cloudy
1:53 PM 45.0 °F 36.6 °F 32.0 °F 60% 29.88 in 10.0 mi WSW 21.9 mph 38.0 mph N/A   Overcast
2:15 PM 46.4 °F 38.1 °F 33.8 °F 62% 29.87 in 10.0 mi WSW 24.2 mph 36.8 mph N/A   Overcast
2:37 PM 44.6 °F 35.9 °F 33.8 °F 66% 29.87 in 10.0 mi WSW 23.0 mph 38.0 mph N/A   Overcast
2:53 PM 45.0 °F 37.6 °F 33.1 °F 63% 29.88 in 10.0 mi WSW 17.3 mph 36.8 mph N/A   Overcast
3:53 PM 46.0 °F 37.6 °F 32.0 °F 58% 29.89 in 10.0 mi WSW 24.2 mph 39.1 mph N/A   Mostly Cloudy
4:53 PM 46.0 °F 37.2 °F 30.9 °F 56% 29.90 in 10.0 mi WSW 26.5 mph 43.7 mph N/A   Mostly Cloudy
5:43 PM 39.2 °F 31.2 °F 33.8 °F 81% 29.91 in 7.0 mi WSW 13.8 mph 35.7 mph 0.01 in Rain Light Rain
5:53 PM 41.0 °F 32.8 °F 34.0 °F 76% 29.94 in 10.0 mi WSW 16.1 mph 20.7 mph 0.01 in   Overcast
6:15 PM 39.2 °F 28.7 °F 35.6 °F 87% 29.92 in 10.0 mi WSW 23.0 mph 36.8 mph 0.00 in Rain Light Rain
6:53 PM 39.0 °F 29.9 °F 35.1 °F 86% 29.94 in 8.0 mi WSW 17.3 mph 29.9 mph 0.01 in Rain Light Rain
7:13 PM 39.2 °F 31.2 °F 35.6 °F 87% 29.93 in 10.0 mi West 13.8 mph 28.8 mph 0.00 in   Overcast
7:41 PM 39.2 °F 31.2 °F 35.6 °F 87% 29.93 in 10.0 mi WSW 13.8 mph 18.4 mph 0.00 in   Overcast
7:53 PM 39.9 °F 32.9 °F 36.0 °F 86% 29.95 in 10.0 mi West 11.5 mph - 0.00 in   Overcast
8:04 PM 39.2 °F 31.2 °F 35.6 °F 87% 29.94 in 10.0 mi WNW 13.8 mph 20.7 mph N/A   Overcast
8:12 PM 37.4 °F 28.5 °F 33.8 °F 87% 29.95 in 4.0 mi West 15.0 mph 28.8 mph 0.02 in Rain Rain
8:26 PM 37.4 °F 29.3 °F 35.6 °F 93% 29.94 in 10.0 mi West 12.7 mph 20.7 mph 0.02 in   Overcast
8:33 PM 39.2 °F 33.0 °F 35.6 °F 87% 29.94 in 10.0 mi WSW 9.2 mph 20.7 mph 0.02 in   Overcast
8:53 PM 39.0 °F 33.4 °F 36.0 °F 89% 29.96 in 10.0 mi WSW 8.1 mph - 0.02 in Rain Light Rain
9:53 PM 39.9 °F 32.1 °F 28.0 °F 63% 29.99 in 10.0 mi WNW 13.8 mph 24.2 mph 0.00 in   Mostly Cloudy
10:53 PM 39.9 °F 31.8 °F 28.0 °F 63% 30.02 in 10.0 mi West 15.0 mph 25.3 mph N/A   Mostly Cloudy
11:53 PM 39.9 °F 31.8 °F 28.0 °F 63% 30.02 in 10.0 mi West 15.0 mph 23.0 mph N/A   Overcast